Hourly Data Report for July 24, 2021

CLYDE RIVER A
NUNAVUT
Current Station Operator: NAVCAN

70°29'09.000" N
68°31'01.000" W
26.50 m
2400804
71090
YCY

Download Data

Hourly Data (July 2021)
Hourly Data Report for July 24, 2021
TIME
LST
Temp Definition
°C
Dew Point Definition
°C
Rel Hum Definition
%
Precip. Amount Definition
mm

Wind Dir Definition
10's deg

Wind Spd Definition
km/h
Visibility Definition
km
Stn Press Definition
kPa
Hmdx Definition


Wind Chill Definition


Weather Definition


00:00 -0.5 -0.9 97 0.0 18 5 16.1 100.30   -2 LegendNANA
01:00 -0.4 -0.8 97 0.0 LegendMM 4 16.1 100.30   -2 LegendNANA
02:00 0.5 -0.1 96 0.0   0 16.1 100.30     LegendNANA
03:00 0.9 -0.1 93 0.0   0 16.1 100.30     LegendNANA
04:00 0.9 -0.1 93 0.0 17 5 16.1 100.27     LegendNANA
05:00 0.7 -0.2 94 0.0 LegendMM 4 16.1 100.25     LegendNANA
06:00 0.9 0.2 95 0.0 13 9 16.1 100.27     LegendNANA
07:00 0.8 0.2 96 0.0 12 9 16.1 100.26     LegendNANA
08:00 0.6 0.0 96 0.0 13 15 16.1 100.24     LegendNANA
09:00 1.4 0.7 95 0.0 13 17 16.1 100.21     LegendNANA
10:00 1.8 0.8 93 0.0 12 21 16.1 100.20     LegendNANA
11:00 1.9 1.2 95 0.0 13 22 16.1 100.17     LegendNANA
12:00 1.8 1.0 94 0.0 13 18 16.1 100.17     LegendNANA
13:00 1.9 1.0 94 0.0 14 24 16.1 100.14     LegendNANA
14:00 1.4 0.7 95 0.0 13 32 16.1 100.14     LegendNANA
15:00 1.0 0.7 98 0.0 12 26 16.1 100.14     LegendNANA
16:00 1.3 0.7 96 0.0 13 39 16.1 100.11     LegendNANA
17:00 1.1 0.5 96 0.0 13 30 16.1 100.11     LegendNANA
18:00 1.2 0.6 96 0.0 12 26 16.1 100.10     LegendNANA
19:00 0.8 0.2 96 0.0 13 37 16.1 100.07     LegendNANA
20:00 0.4 0.0 97 0.0 13 34 16.1 100.05     LegendNANA
21:00 0.3 -0.1 97 0.0 13 28 16.1 100.02     Rain
22:00 0.4 0.3 99 0.0 13 28 4.8 99.99     Fog
23:00 0.5 0.5 100 0.0 13 34 0.6 99.95     Fog

Notes on Data Quality.

Legend

  • E = Estimated
  • M = Missing
  • NA = Not Available*
  • [empty] = Indicates an unobserved value
Date modified: